GEFSMA_500_meanwind_162.txt.gz
Wind_Speed
25 26 26 26 26 27 26 26 26 26 26 27 26 26 26 26 25 25 26 26 26 26 26 26 26 27 27 28 29 29 30 31 31 32 32 32 32 33 33 33 33 33 34
27 27 28 28 28 28 29 28 28 27 28 28 28 27 27 26 26 27 27 27 27 27 27 27 28 28 29 29 30 30 31 32 32 32 33 33 33 34 35 35 35 35 35
29 29 29 29 29 29 29 29 29 29 29 28 28 28 28 27 28 28 28 28 28 28 28 29 29 30 31 31 32 32 33 33 34 34 34 35 35 35 35 36 37 37 36
30 30 30 31 30 30 31 30 30 30 29 29 29 29 29 29 29 29 29 29 28 29 29 30 31 32 32 33 33 34 34 35 36 36 37 37 37 38 38 38 38 38 38
32 31 32 31 31 31 31 31 31 31 30 30 30 30 30 30 30 30 29 29 30 31 32 33 33 33 34 35 35 35 35 36 37 38 38 38 39 39 39 40 40 40 40
33 33 33 32 33 33 33 32 32 32 32 31 31 31 31 31 31 31 31 32 32 33 34 35 35 35 36 37 37 37 38 39 39 39 40 40 41 41 41 42 42 43 43
35 35 34 34 34 33 33 33 33 33 33 32 33 33 33 33 33 33 34 35 35 36 37 37 37 37 38 39 39 40 40 41 42 42 42 42 42 42 43 43 44 44 45
35 35 35 35 35 35 34 34 34 34 34 35 35 35 35 35 35 35 36 37 38 38 39 39 39 39 40 41 41 42 43 43 44 44 44 44 44 44 44 44 45 45 46
36 35 35 35 36 36 35 35 35 36 36 37 37 37 37 36 36 36 37 38 39 40 40 40 41 41 42 43 43 44 45 45 46 46 46 46 46 46 46 46 46 46 47
37 36 35 35 35 36 36 36 36 36 37 38 38 38 38 39 39 38 39 40 41 41 41 42 42 43 44 44 45 46 46 47 47 48 48 48 48 48 48 48 48 48 48
36 37 37 36 36 36 37 37 37 37 38 38 38 39 40 41 41 42 41 42 42 43 44 44 45 46 47 47 47 48 48 48 48 48 49 49 50 50 50 50 50 50 50
38 38 38 38 38 39 39 40 39 39 39 40 40 41 42 43 44 44 44 45 45 46 47 47 48 48 48 49 49 49 49 49 49 50 51 51 52 52 52 52 52 51 51
40 40 39 39 40 41 41 41 41 41 41 41 42 44 45 46 46 47 48 48 48 49 49 50 50 51 50 50 50 50 50 50 51 52 52 53 53 53 53 53 53 53 52
41 41 41 40 40 41 41 41 42 43 43 44 45 46 47 48 49 50 51 51 51 51 51 52 52 52 52 51 51 51 52 52 52 53 53 54 54 54 54 54 54 54 54
40 41 41 41 41 42 42 43 44 45 45 46 47 48 49 50 51 52 53 54 54 54 53 53 53 53 53 53 53 53 53 53 54 54 55 55 56 56 56 56 56 56 56
41 42 42 42 43 43 44 44 46 46 47 48 49 50 51 53 54 55 55 56 56 56 56 54 55 55 55 55 55 55 55 55 55 56 56 57 57 58 58 58 57 57 56
43 43 44 44 45 45 46 46 48 49 50 51 52 52 53 54 54 55 56 57 57 58 58 57 57 57 57 57 57 57 57 57 58 58 59 59 59 59 58 58 57 56 55
45 45 46 47 47 48 48 49 50 51 52 52 53 54 54 55 56 57 58 58 59 60 61 59 58 59 59 59 59 59 59 60 60 59 59 59 59 58 57 56 55 55 54
46 47 48 49 49 49 50 51 51 52 53 54 55 56 57 58 58 59 60 61 62 62 62 61 60 60 60 61 61 60 60 60 60 60 59 59 57 56 55 55 54 54 53
47 48 49 50 50 51 52 52 53 54 54 55 56 57 58 59 60 61 62 62 62 62 62 62 61 61 61 61 61 61 60 60 60 59 58 57 55 54 54 53 53 52 52
48 49 50 50 51 52 52 53 54 55 56 57 58 59 60 61 61 62 62 62 62 62 62 61 61 61 61 61 61 60 60 59 58 57 55 54 53 52 52 51 51 51 50
48 49 50 51 51 52 53 54 55 56 57 58 59 60 61 61 62 62 62 62 62 62 62 62 61 60 60 59 59 59 58 57 56 54 53 52 51 51 50 50 49 49 48
49 49 50 50 51 52 53 55 57 58 59 60 61 61 61 61 62 61 61 61 61 62 62 61 60 59 58 58 58 58 57 56 54 53 51 50 50 49 48 47 47 47 46
49 50 50 51 52 53 55 57 58 59 60 61 62 62 62 61 61 61 61 61 61 60 60 60 59 58 57 57 57 56 55 54 52 51 50 48 47 47 46 45 45 44 44
51 51 52 53 54 55 57 58 59 60 61 62 62 62 62 62 62 62 62 61 60 59 58 58 57 57 56 56 55 55 54 53 51 49 48 47 45 45 44 43 43 42 42
52 53 53 54 55 56 57 59 60 61 62 62 62 62 62 62 62 62 61 60 59 58 58 57 56 56 55 55 54 53 52 51 49 47 46 45 44 43 42 41 41 41 41

GEFSMA_500_meanwind_168.txt.gz
Wind_Speed
26 25 25 25 25 26 26 26 26 26 26 26 26 26 26 26 26 26 26 26 25 25 25 25 25 25 24 24 25 25 26 26 27 27 28 29 30 30 30 31 32 32 33
27 27 27 27 27 27 28 27 28 28 28 28 28 27 27 27 27 26 26 26 26 26 26 26 26 26 26 26 26 27 27 27 28 29 29 30 31 31 32 32 33 34 35
29 29 29 29 29 29 29 29 29 29 30 29 29 28 28 28 28 28 28 27 27 27 27 28 28 28 28 28 28 29 29 30 30 31 32 32 33 33 34 35 35 36 37
30 30 30 31 31 30 30 30 30 31 31 30 30 30 30 29 29 29 29 29 29 30 30 30 30 30 30 30 30 31 31 32 32 33 34 34 35 36 36 37 38 38 38
31 31 31 32 32 32 31 32 31 31 31 31 31 32 31 31 30 30 31 31 32 32 32 32 32 32 33 33 33 33 34 34 35 35 36 36 37 37 38 39 39 40 41
32 32 32 33 33 33 33 32 32 32 33 33 33 33 33 32 32 32 33 33 34 34 34 35 35 35 36 36 36 36 37 37 37 37 38 38 39 39 39 41 41 42 43
33 33 34 34 34 34 34 33 34 34 34 34 34 34 34 34 34 35 35 35 35 36 36 36 37 37 38 38 38 39 39 39 39 39 40 40 41 41 42 43 43 44 44
34 33 35 35 35 35 35 35 36 36 35 35 35 35 35 36 36 37 37 38 38 38 38 38 39 39 39 40 40 40 40 40 41 41 42 42 43 43 43 44 44 45 45
34 34 35 35 36 35 36 36 36 36 36 36 36 36 36 37 38 38 39 39 39 40 40 40 40 41 41 41 42 42 42 43 43 43 44 45 45 46 46 46 46 46 46
36 36 36 37 37 37 37 37 37 37 37 37 37 37 38 39 40 40 41 41 41 42 42 42 43 43 43 44 44 44 45 45 46 46 47 47 48 48 48 48 48 48 48
38 38 38 38 38 38 39 39 39 38 39 39 39 39 40 40 41 42 41 42 43 43 43 44 44 45 45 46 47 47 47 47 48 48 49 49 50 50 50 50 50 50 51
38 39 40 40 39 40 40 40 40 40 40 41 41 41 42 42 43 43 43 44 44 44 44 45 46 47 48 48 49 49 50 50 50 51 51 51 51 52 52 52 52 52 52
39 40 40 41 41 41 42 41 40 40 41 42 42 43 44 44 45 45 45 45 45 45 46 47 48 49 50 51 51 52 53 53 54 54 53 53 53 53 54 54 54 54 54
40 41 42 42 42 42 42 41 41 42 43 43 44 45 45 45 46 46 47 47 47 47 48 49 50 51 52 53 54 54 55 56 56 56 56 55 56 56 56 56 56 56 55
43 43 43 42 42 42 42 43 43 44 45 45 45 45 46 47 48 49 49 50 50 50 50 51 52 53 55 55 56 56 57 57 58 58 58 58 58 58 58 58 57 57 57
44 44 43 43 43 43 44 43 44 45 46 46 46 47 47 48 49 50 51 52 52 53 53 53 55 56 57 57 58 58 59 59 59 59 59 59 60 60 60 59 59 59 59
45 44 44 44 44 44 44 45 45 46 47 48 48 49 49 49 50 51 52 54 55 56 57 56 57 58 59 59 60 61 61 61 61 61 61 61 61 61 60 60 60 59 59
46 46 46 45 46 46 46 47 47 48 49 50 50 51 51 52 53 54 55 56 58 59 60 59 58 60 61 62 63 63 63 63 63 63 62 62 62 61 61 60 60 60 60
45 46 47 47 47 48 49 49 49 50 51 51 52 53 54 55 56 57 58 59 60 61 62 63 62 62 63 63 63 64 64 64 64 64 64 63 63 62 62 61 61 60 60
45 47 48 48 49 50 50 51 51 52 53 53 54 55 55 56 57 58 60 61 62 62 63 64 64 63 63 64 65 65 65 65 65 64 64 64 63 63 63 62 61 61 60
46 47 48 49 50 51 51 52 52 53 54 54 55 55 56 57 59 60 61 62 62 63 64 65 65 65 65 65 66 66 65 65 64 64 64 64 63 62 62 62 62 61 60
47 48 49 50 50 51 52 53 53 54 54 55 56 56 57 59 60 61 62 63 64 65 65 66 66 66 66 66 66 65 65 64 63 63 63 62 62 62 62 62 61 60 58
47 48 49 50 51 51 52 53 53 54 55 55 56 57 59 60 61 62 63 64 65 66 67 68 68 67 66 65 66 65 64 64 63 62 62 61 61 60 60 60 59 57 55
47 48 49 50 51 51 52 53 54 54 55 56 57 58 60 61 62 63 64 65 66 66 67 68 68 66 66 65 65 64 63 63 62 61 61 59 58 58 57 57 56 54 53
48 49 49 50 51 52 53 54 55 56 56 57 58 59 61 62 63 64 65 66 66 66 66 66 65 65 64 64 63 63 62 62 60 58 58 58 56 55 54 53 52 51 50
48 48 49 50 51 53 54 55 56 57 57 57 58 59 60 62 62 63 64 64 64 63 63 62 62 62 61 61 60 60 60 59 58 57 55 55 54 53 51 49 49 48 47

GEFSMA_500_meanwind_174.txt.gz
Wind_Speed
25 25 24 24 24 24 23 23 23 23 23 23 23 24 24 25 25 25 25 25 26 25 25 25 26 26 26 26 26 25 26 26 26 27 27 28 28 28 29 30 30 30 30
27 26 26 26 26 25 25 25 25 25 25 25 25 26 26 26 26 26 27 27 27 27 26 27 27 27 27 27 27 28 28 28 29 29 29 30 30 30 30 31 31 32 32
28 28 28 27 27 27 27 27 27 26 26 26 27 27 27 28 27 28 28 28 28 28 28 29 29 29 29 29 30 30 30 31 31 31 31 32 32 32 32 32 32 33 34
30 30 29 29 29 28 28 28 28 28 28 29 29 29 29 29 29 29 30 30 30 30 30 31 31 31 31 31 32 32 33 33 33 33 33 34 34 34 34 34 34 34 35
31 31 30 30 30 30 30 30 30 30 30 31 31 31 31 31 31 31 31 31 32 32 32 33 33 33 33 34 34 34 35 35 35 35 36 36 36 36 36 36 36 37 37
33 32 32 31 31 31 32 32 32 32 32 32 32 33 33 33 33 33 33 33 34 34 35 35 35 35 35 36 36 37 37 37 37 37 37 38 38 38 38 39 39 39 39
35 34 33 34 33 33 33 34 34 33 34 34 34 34 34 35 35 35 35 35 36 36 36 37 37 37 38 38 38 38 38 39 39 39 39 40 40 40 40 40 41 41 41
35 36 36 35 35 35 35 35 35 35 35 36 36 36 36 36 36 37 37 37 38 38 38 39 39 40 40 40 40 40 40 40 41 41 42 42 42 42 42 42 42 42 43
37 37 37 36 36 36 37 37 37 37 38 38 38 38 38 37 38 38 38 38 38 39 40 41 41 41 41 41 41 42 42 42 43 43 43 44 44 44 44 45 45 45 45
36 37 37 37 38 37 38 39 39 39 40 40 39 39 39 38 38 38 39 39 40 40 41 42 42 43 43 43 43 44 44 44 44 45 45 45 45 46 46 47 47 47 47
36 37 37 38 39 39 39 38 39 40 40 40 40 40 40 41 41 41 40 41 42 43 43 43 44 45 45 45 46 46 47 46 46 47 47 47 48 49 49 50 50 50 50
38 38 38 38 39 40 39 39 40 40 41 42 42 42 42 42 42 43 43 43 44 44 45 46 46 47 48 48 49 49 49 49 50 50 50 51 51 52 52 52 52 53 53
38 39 40 41 41 42 42 42 42 42 43 43 43 43 43 44 45 45 45 45 45 46 47 48 49 50 50 51 51 52 52 53 53 53 54 54 54 55 55 55 55 55 55
41 41 43 43 43 44 45 44 45 45 44 45 45 45 45 46 46 47 47 48 48 48 49 50 50 51 52 53 53 54 55 55 55 56 57 57 57 57 58 58 58 58 58
42 42 43 44 44 45 45 46 47 47 47 47 46 46 47 48 48 48 49 50 51 51 50 51 52 52 53 54 55 56 56 57 58 58 59 59 59 59 60 60 60 60 60
42 42 43 44 44 45 45 46 47 47 48 48 48 49 49 50 50 50 51 51 52 53 53 53 54 55 55 56 57 57 58 59 60 60 61 62 62 62 62 63 62 63 62
43 44 44 44 45 46 46 47 47 48 48 49 49 50 50 51 51 52 52 53 54 55 54 54 55 56 57 59 59 60 61 62 63 63 63 64 64 64 65 65 65 65 65
43 44 44 45 46 47 47 48 49 49 50 51 51 52 52 53 53 54 55 55 56 56 57 57 57 59 60 61 62 63 64 65 65 65 66 66 66 66 66 66 67 66 66
44 45 45 46 47 48 49 49 50 51 52 52 53 53 54 54 55 55 56 56 57 58 59 59 60 61 62 64 65 65 66 67 67 67 67 68 68 68 68 68 68 68 67
45 46 46 47 48 49 49 50 51 52 52 53 54 55 55 56 56 57 57 57 58 59 60 61 62 62 64 65 67 68 68 68 69 70 70 69 69 69 69 69 68 68 67
46 46 46 47 48 50 51 51 52 53 53 54 54 55 55 56 56 57 57 58 59 60 61 62 63 64 65 66 67 68 69 69 69 69 70 69 69 69 68 68 67 66 65
46 46 47 48 49 50 51 52 53 53 53 54 54 54 55 56 57 57 58 60 61 61 62 63 64 65 65 66 67 68 69 69 68 67 67 67 68 67 66 66 65 64 63
48 48 49 49 50 50 51 52 52 53 53 53 54 55 55 56 57 58 59 60 61 62 63 63 64 64 65 66 67 67 67 66 66 65 66 64 64 63 63 63 63 63 62
49 49 49 50 50 50 51 51 52 53 53 53 53 54 55 56 57 58 58 59 60 61 63 63 64 64 64 65 66 66 66 66 64 63 63 62 60 60 60 60 60 60 60
49 49 50 50 51 51 51 52 52 52 52 53 54 55 55 56 57 58 59 59 60 60 62 63 64 64 64 65 65 65 64 64 62 60 60 60 58 58 57 57 57 57 56
49 49 50 50 51 51 51 52 52 52 52 53 54 54 55 56 57 58 59 59 59 59 60 61 62 63 63 63 64 64 63 62 61 59 57 58 56 56 55 53 53 52 51

GEFSMA_500_meanwind_180.txt.gz
Wind_Speed
29 28 26 25 25 24 23 22 22 21 21 21 21 20 20 20 21 21 22 22 22 23 23 24 24 24 24 24 24 24 25 25 26 26 27 27 28 28 29 29 29 30 30
31 30 28 27 26 25 24 24 23 22 22 22 22 22 22 22 23 23 23 24 24 24 25 25 26 26 26 26 26 26 26 27 27 27 28 29 29 30 30 31 31 32 32
32 31 30 29 27 27 26 26 25 24 24 24 24 24 24 24 24 25 25 26 26 26 26 27 27 28 28 28 28 29 29 29 29 30 30 30 31 32 32 32 32 32 33
32 33 32 31 30 28 28 28 27 26 26 26 26 26 26 26 27 27 27 28 28 28 28 29 29 29 30 30 31 31 31 31 32 32 33 33 33 33 34 34 34 34 34
34 34 34 33 32 31 30 30 29 29 29 29 29 29 29 29 29 29 29 30 30 30 30 30 31 31 32 32 33 33 33 34 34 35 35 35 35 35 35 36 36 36 36
36 35 34 34 34 33 32 32 32 31 31 31 31 31 31 31 30 30 31 31 32 32 32 32 33 34 34 35 35 36 36 37 37 37 37 38 38 38 38 38 38 38 38
37 36 36 36 36 36 34 34 33 33 33 33 32 32 33 33 32 32 33 33 33 34 34 35 35 36 37 37 37 38 38 39 39 39 39 39 40 40 40 40 40 40 40
37 35 36 36 36 36 36 36 35 35 35 35 34 35 35 35 34 34 34 35 36 36 36 37 37 38 38 39 39 40 40 40 40 40 41 41 41 42 42 42 42 43 43
38 38 37 37 37 38 38 37 36 37 37 37 37 37 38 37 36 37 37 38 38 38 38 39 39 40 40 41 41 41 42 42 42 42 43 43 44 44 44 45 45 45 46
38 38 38 38 38 38 39 39 39 39 39 39 39 39 40 40 40 40 40 40 40 41 41 41 42 43 43 43 44 44 44 44 45 45 45 45 46 46 47 47 48 48 48
40 40 39 39 39 39 40 40 41 41 40 40 41 40 41 42 42 42 42 42 43 43 44 44 45 45 45 46 46 46 47 47 48 48 48 49 49 49 50 50 51 51 51
39 41 41 40 40 40 42 42 42 41 42 42 43 43 43 43 44 44 44 44 45 46 46 47 47 47 47 48 48 49 50 50 50 51 51 52 52 53 53 54 54 54 54
37 38 39 40 41 41 41 42 43 44 43 43 44 44 45 45 45 46 46 47 47 47 48 48 49 49 49 50 51 51 52 52 53 54 54 55 55 56 56 56 56 57 57
38 39 40 40 41 41 42 42 43 44 44 44 44 45 45 46 46 48 48 48 48 48 49 49 50 51 51 52 53 53 54 54 55 56 56 57 58 58 59 59 59 59 59
39 40 41 42 42 43 43 44 44 45 45 44 44 45 46 47 47 48 49 49 49 49 50 50 51 52 53 54 54 55 56 57 57 58 59 59 60 60 60 61 61 62 63
41 41 42 42 42 42 43 44 45 45 46 47 47 47 46 47 48 49 50 51 51 51 52 52 53 54 55 56 57 57 58 58 59 59 60 60 61 61 62 63 64 65 65
40 42 43 43 43 43 44 45 46 46 47 48 48 48 49 49 49 49 50 51 52 53 54 54 56 57 57 58 58 59 59 60 60 61 62 63 63 64 64 65 66 67 67
41 42 43 43 44 44 45 46 46 47 48 48 49 49 50 51 51 51 51 52 54 55 55 56 57 58 59 59 59 60 61 62 63 64 65 66 66 67 67 68 68 69 69
42 42 42 43 44 44 45 46 47 47 47 48 49 50 50 50 51 52 53 54 55 55 56 57 58 58 59 60 60 61 62 63 65 66 67 68 68 69 69 70 70 70 70
42 42 43 44 44 44 45 46 46 47 47 48 49 50 50 51 52 53 53 54 55 56 57 58 58 59 60 61 62 63 63 64 65 66 67 68 69 70 70 70 70 70 69
43 44 44 45 45 46 46 46 47 47 48 48 49 50 51 52 52 53 54 55 56 57 57 58 59 60 61 62 63 64 65 65 65 67 67 68 69 69 69 69 69 68 67
44 45 45 45 46 46 46 47 47 48 49 49 50 50 51 52 53 54 55 56 57 57 58 58 59 60 60 62 63 64 65 65 65 66 67 67 67 67 67 67 66 65 64
45 45 45 46 47 47 48 48 48 49 50 50 51 51 52 53 54 55 55 56 57 58 58 59 59 59 60 61 63 64 64 65 65 65 65 64 64 64 64 63 63 63 62
45 46 46 47 48 48 48 49 49 50 50 51 51 52 53 53 54 55 55 56 56 57 58 58 58 59 60 61 62 63 64 64 64 63 64 62 61 61 61 60 59 59 59
45 46 46 47 47 48 48 49 50 50 51 51 52 52 53 53 54 54 55 55 56 56 57 58 57 58 58 59 61 62 61 61 60 59 60 60 60 59 58 57 56 56 56
46 46 47 48 48 49 49 50 50 50 51 52 52 52 52 52 53 54 55 55 56 56 57 57 57 58 59 60 60 61 60 59 59 58 57 57 57 56 54 53 53 52 52

GEFSMA_500_meanwind_186.txt.gz
Wind_Speed
32 31 30 29 29 29 28 27 26 25 24 23 22 22 21 21 20 20 20 20 21 20 21 21 21 21 22 22 23 23 24 24 24 25 25 25 26 26 27 27 27 28 28
32 32 31 31 30 30 29 29 28 27 26 25 24 23 23 23 22 22 22 22 22 22 23 23 23 24 24 24 25 25 25 26 26 26 26 27 28 28 28 29 29 29 29
34 32 33 33 31 31 31 30 30 29 28 27 26 25 25 25 24 24 24 24 24 24 25 25 25 26 26 26 27 27 27 28 28 28 28 29 29 30 30 31 31 31 31
35 34 34 34 33 32 32 32 31 30 29 28 28 27 27 26 26 26 25 26 26 26 27 27 27 28 28 28 29 29 29 30 30 30 31 31 32 32 33 33 33 33 33
37 36 34 34 34 33 33 33 32 32 31 30 30 29 29 28 28 28 28 28 28 29 29 29 29 30 30 30 31 31 31 32 32 33 33 34 34 35 35 35 35 35 35
38 38 36 35 34 34 34 34 34 34 33 31 31 31 30 30 30 30 30 30 30 31 31 31 32 32 32 33 33 34 34 34 35 35 35 36 36 37 37 37 37 37 37
40 40 40 38 36 36 35 35 36 35 35 34 33 33 33 33 33 33 32 32 33 33 33 33 33 34 34 35 35 36 36 37 37 37 37 38 38 39 39 39 39 39 39
41 40 40 39 38 36 35 36 36 36 36 36 35 34 34 34 35 34 34 34 35 35 35 35 36 36 37 37 37 38 38 39 39 39 40 40 40 40 41 41 42 42 42
40 41 41 39 38 37 37 37 37 37 38 38 37 36 36 36 36 37 37 37 37 37 37 38 38 38 39 39 40 40 41 41 42 42 42 42 43 43 43 43 44 45 45
38 40 40 40 39 38 39 39 39 39 39 40 40 39 39 39 38 39 39 39 39 40 39 40 40 41 40 41 42 42 43 43 44 44 45 45 46 46 46 46 46 47 48
38 40 40 40 40 40 39 39 39 39 40 41 41 41 41 41 41 41 41 42 42 42 42 42 42 43 43 43 44 44 45 45 46 47 47 48 48 48 48 49 49 50 50
36 37 39 40 40 40 40 39 39 40 41 43 44 44 44 43 43 43 43 43 43 44 44 44 45 45 46 45 46 47 47 48 48 49 49 50 50 50 50 51 52 52 53
36 37 38 39 40 40 40 40 41 41 42 43 44 46 47 47 46 45 45 45 45 45 45 46 47 47 47 47 48 49 49 50 50 51 51 52 52 52 53 54 54 55 55
36 37 37 38 39 40 40 41 42 41 42 44 45 46 48 49 48 48 47 46 47 47 47 48 48 49 49 49 50 51 51 52 53 53 54 55 55 55 56 57 57 57 58
36 37 37 39 40 41 42 42 42 43 44 44 45 45 46 47 47 48 48 48 48 48 48 49 49 50 51 51 51 52 54 54 55 55 56 57 57 58 58 58 59 59 60
36 37 38 39 40 40 41 41 42 44 43 44 45 45 47 48 48 48 49 49 49 49 49 50 51 51 52 54 54 54 55 55 56 57 57 58 59 60 60 60 61 61 62
37 38 39 40 40 41 41 42 42 42 44 45 46 46 47 47 49 49 50 50 50 50 50 50 51 52 53 54 55 55 56 56 57 58 59 60 60 61 62 62 63 63 64
37 39 39 39 40 42 43 44 44 44 45 46 47 47 47 48 49 50 50 50 51 51 51 52 53 54 54 55 56 56 57 57 58 59 60 60 61 62 62 63 64 65 66
37 38 39 40 41 42 44 45 45 46 46 46 46 47 48 49 49 50 50 51 52 53 53 53 53 54 55 57 57 58 58 58 59 60 61 61 62 63 63 64 65 66 67
39 39 40 41 42 43 44 44 45 47 47 46 46 47 48 49 49 51 52 53 53 54 54 54 53 54 55 56 57 58 59 59 60 60 61 62 62 63 64 65 66 68 68
42 42 43 43 44 44 45 45 46 47 47 47 47 48 48 49 50 51 52 53 54 54 54 54 54 54 55 56 57 59 59 59 59 60 61 61 62 63 65 66 67 67 68
43 43 44 44 45 45 46 45 46 47 47 47 47 48 49 49 50 51 52 53 53 53 54 54 54 55 55 57 58 58 59 59 59 60 61 61 63 64 65 66 66 66 65
43 43 43 44 44 45 45 46 46 47 46 46 47 48 49 49 50 51 52 52 52 53 53 54 55 55 56 57 58 58 59 59 60 61 62 62 62 63 64 64 64 63 63
42 42 42 43 44 44 44 45 46 46 46 47 48 49 49 49 50 51 51 51 52 52 53 55 55 56 56 57 58 58 58 59 59 60 62 62 62 62 61 61 61 60 59
41 42 42 43 44 44 45 46 47 47 48 48 48 49 49 50 50 50 51 51 52 52 53 54 54 55 56 57 59 59 59 60 59 59 60 61 60 59 59 58 57 56 56
41 42 43 43 44 44 45 46 47 48 48 48 48 49 49 50 50 51 51 52 52 52 53 53 53 55 56 57 58 59 59 60 59 58 57 58 58 57 56 54 54 54 53

GEFSMA_500_meanwind_192.txt.gz
Wind_Speed
31 31 31 31 30 29 28 28 28 27 27 27 26 25 24 23 23 22 22 22 21 21 21 22 22 22 22 22 22 22 22 23 23 24 24 24 25 25 25 25 26 26 26
33 32 32 32 33 32 31 30 30 30 29 28 28 27 26 25 25 24 24 23 23 23 23 23 24 24 24 24 24 24 25 25 26 26 26 26 27 27 27 27 28 28 28
34 34 34 34 34 34 33 33 31 31 31 30 30 30 29 28 27 27 26 26 26 25 25 25 26 26 26 26 26 27 27 28 28 29 29 29 29 29 29 30 30 30 30
37 36 36 36 36 36 35 34 34 33 33 33 32 32 31 30 29 29 29 28 28 28 28 28 27 28 28 28 29 29 30 30 31 31 31 31 31 31 31 32 32 32 32
39 37 37 37 38 38 38 37 36 35 35 35 34 34 33 32 31 31 31 31 31 30 30 30 30 30 31 31 31 32 32 32 33 33 33 33 33 33 34 34 34 34 34
39 38 38 37 38 39 38 38 38 37 35 35 36 36 36 35 34 33 34 34 33 33 33 32 33 33 33 34 34 34 35 35 35 35 35 35 35 35 36 36 36 36 36
37 39 40 39 38 39 40 39 39 38 37 35 36 38 37 37 36 36 36 36 36 35 35 35 35 35 36 36 36 36 36 37 37 37 37 37 37 38 38 38 38 38 39
37 38 40 41 40 39 39 38 39 38 37 37 37 39 39 39 39 38 38 37 37 37 37 37 37 37 37 38 38 38 38 38 38 39 39 39 39 40 40 40 40 40 41
36 37 38 39 39 39 40 41 40 39 38 39 38 38 38 38 39 39 39 39 39 39 39 39 39 39 39 39 40 40 40 41 41 41 41 41 42 42 42 42 42 43 43
36 35 36 38 39 40 40 40 40 39 38 38 38 38 39 40 40 40 40 40 40 41 41 41 41 41 41 42 42 42 43 43 43 44 43 43 44 44 44 44 45 45 45
35 35 35 36 38 39 39 39 39 40 41 41 39 39 39 40 41 40 41 42 42 42 43 43 43 43 44 44 44 44 44 45 45 45 45 45 45 46 46 46 47 47 47
35 35 36 36 37 38 38 38 39 40 41 41 41 41 40 40 41 41 42 42 43 43 44 44 45 45 45 46 45 46 46 47 47 47 47 47 47 48 48 49 49 50 50
35 36 36 36 36 37 38 38 39 40 41 41 42 43 43 43 43 44 44 45 46 46 47 47 47 47 47 47 47 47 47 48 48 48 48 49 49 50 50 51 51 52 53
36 37 36 36 36 37 38 39 40 41 42 42 43 44 45 45 45 45 46 47 48 49 49 49 49 49 49 50 50 50 49 49 49 50 50 51 52 52 53 54 54 55 56
38 38 38 37 37 38 39 41 41 42 42 43 43 44 46 46 47 47 47 48 49 49 50 50 50 51 51 51 51 51 51 51 52 52 53 54 54 55 57 57 57 58 58
39 40 40 40 39 39 40 41 42 43 43 43 44 45 45 46 46 46 47 48 49 50 50 50 51 51 51 51 51 52 53 53 54 54 55 56 58 58 59 59 60 60 60
39 40 40 40 39 40 40 41 42 43 43 43 44 45 46 47 47 47 48 48 49 50 51 50 51 51 51 51 51 52 54 55 56 57 58 59 60 60 60 60 61 62 62
37 38 40 40 40 41 42 42 42 43 43 44 44 46 48 49 49 48 48 48 49 50 50 50 51 51 51 51 52 53 54 55 57 58 59 60 61 61 61 62 62 62 63
38 39 40 40 40 40 41 42 42 42 42 44 45 46 49 50 49 49 49 49 49 50 50 50 51 52 52 53 54 54 55 56 57 58 59 60 60 61 62 62 62 63 63
37 38 38 38 39 40 41 42 42 43 44 45 46 47 49 49 49 49 49 49 50 50 50 51 52 53 54 55 55 55 56 56 57 58 59 59 60 60 61 62 62 63 63
37 38 38 39 41 41 42 43 44 45 46 46 47 47 48 48 48 49 49 50 51 52 52 53 53 53 55 55 56 56 56 56 57 57 58 58 59 59 60 60 62 63 64
38 39 40 41 42 42 43 44 45 45 46 47 47 47 47 48 49 49 50 50 51 53 54 54 54 54 55 56 56 56 56 56 56 56 57 57 58 59 60 61 63 64 65
40 40 40 41 41 43 44 44 45 45 45 45 45 46 46 48 49 50 51 52 53 53 54 54 54 54 55 55 55 55 55 55 56 57 58 57 58 59 61 62 63 64 65
39 40 40 40 41 42 43 43 44 44 44 44 45 46 47 48 50 51 52 53 53 53 53 54 54 54 54 53 54 55 55 56 56 57 58 58 59 60 61 62 63 63 63
39 39 40 40 41 41 42 43 44 45 46 46 47 47 48 49 50 51 52 52 52 52 53 53 53 53 53 53 54 55 55 56 56 57 58 59 60 60 60 60 60 60 59
39 40 40 40 40 41 42 43 45 46 47 46 46 47 48 49 50 50 51 51 50 51 52 52 52 53 53 54 55 55 56 57 57 57 58 60 60 60 58 56 56 56 56

GEFSMA_500_meanwind_198.txt.gz
Wind_Speed
32 32 31 31 30 29 29 28 28 27 27 26 26 26 25 25 25 24 24 23 23 23 23 22 22 22 22 22 22 22 22 22 23 23 24 24 24 25 25 26 26 26 26
35 34 33 32 32 31 31 31 31 30 30 29 28 28 27 27 27 26 26 26 26 25 25 24 24 24 24 23 23 23 24 24 24 25 26 26 27 27 28 28 28 28 28
36 36 35 35 34 33 33 34 33 32 32 31 31 30 29 29 29 29 28 28 28 28 28 27 27 27 26 26 26 26 26 27 27 28 28 28 29 29 30 30 30 30 30
37 37 37 37 36 36 35 35 35 34 34 34 33 33 32 32 31 31 31 31 31 30 30 30 30 29 29 28 29 29 29 30 30 30 31 31 31 32 32 32 32 32 32
38 38 38 39 38 38 37 37 37 36 36 36 36 36 35 34 34 33 33 33 33 33 33 33 33 32 32 31 31 32 32 32 32 32 33 33 33 33 33 33 34 34 34
37 39 40 40 40 40 39 39 38 38 37 37 37 37 37 37 37 36 35 36 36 36 36 36 36 36 35 35 34 34 34 34 34 34 34 35 35 35 35 36 36 36 36
36 36 38 40 40 40 41 40 40 40 39 38 39 40 40 39 39 38 37 38 38 38 39 38 38 38 38 37 37 36 36 37 37 37 37 37 37 37 38 38 38 38 39
36 35 36 38 39 38 39 40 40 40 41 40 40 40 41 41 40 40 39 39 39 40 40 41 41 41 40 39 39 39 39 39 39 39 38 38 39 39 40 40 40 40 41
36 37 37 37 38 38 38 39 40 41 41 41 41 41 41 41 40 41 41 41 40 40 40 41 42 42 41 41 41 41 41 41 42 42 42 42 42 42 43 42 42 42 42
36 37 37 38 38 37 38 39 40 40 41 42 41 41 42 43 42 42 41 41 41 41 41 42 43 44 43 43 43 43 43 43 43 43 43 44 44 44 44 44 44 44 44
37 38 38 38 38 38 38 39 40 40 41 42 41 41 41 42 42 43 42 42 41 42 43 44 44 45 45 45 45 45 45 45 45 45 45 46 46 46 46 46 46 47 47
36 38 38 39 38 38 38 38 39 40 40 41 41 41 42 42 42 42 42 41 41 42 43 44 44 45 46 46 46 47 47 46 46 47 47 47 47 47 48 48 48 48 49
36 37 38 39 39 39 39 39 39 38 39 41 42 42 42 42 41 42 43 43 43 43 43 44 45 46 47 47 47 47 47 48 48 48 49 48 48 48 49 49 50 50 50
36 37 37 38 39 40 40 39 39 38 39 40 40 41 41 41 41 42 43 44 44 44 45 45 46 47 47 47 47 47 47 48 49 50 51 50 50 50 51 52 52 52 53
36 36 37 38 39 40 41 42 41 40 40 38 38 40 42 43 43 45 44 44 46 46 46 46 46 46 47 47 46 47 48 49 50 51 52 52 52 53 53 53 54 54 55
37 37 37 38 39 40 41 43 43 43 43 42 41 41 43 44 45 46 46 47 47 47 47 47 48 48 48 49 49 49 50 51 51 52 53 53 54 55 55 56 57 57 57
38 38 38 39 40 40 41 43 44 45 45 45 45 45 45 45 47 47 47 47 47 48 49 49 49 50 50 51 50 51 52 52 53 53 54 54 54 55 56 57 58 58 59
38 39 40 40 40 41 41 42 43 44 45 45 46 46 46 46 46 46 46 47 48 49 49 50 51 51 52 52 53 53 53 53 54 54 54 54 55 56 57 58 58 59 60
38 38 39 40 41 42 42 43 43 43 44 45 46 47 47 47 47 47 48 48 49 49 49 50 50 50 51 52 53 54 54 54 54 55 55 56 57 58 59 59 59 59 60
38 38 38 40 41 42 42 43 44 44 45 46 47 47 47 48 48 48 49 49 49 50 51 51 51 51 52 53 54 54 55 54 55 56 56 57 58 58 59 59 60 60 61
37 37 38 39 41 42 43 44 44 45 45 46 47 47 48 48 48 49 49 49 50 50 51 52 52 53 54 54 55 55 55 55 56 56 57 58 58 58 59 59 60 61 62
37 38 39 39 40 41 42 43 44 44 45 45 46 47 48 48 49 50 50 50 50 51 51 51 52 52 53 54 55 55 56 56 57 57 58 59 59 59 59 60 60 61 62
37 38 38 39 40 42 43 43 43 44 45 46 47 47 47 48 49 49 49 49 49 50 51 51 52 52 53 54 55 55 56 57 57 58 59 58 59 59 59 60 60 60 61
37 38 38 39 40 42 43 43 44 45 46 46 47 47 47 47 48 48 48 48 48 49 50 51 52 53 54 55 55 56 57 57 58 58 59 59 58 58 59 59 60 61 62
37 38 38 39 40 42 43 43 44 45 46 46 46 46 46 46 47 47 48 48 48 49 50 51 52 54 54 55 56 57 57 57 57 58 58 57 57 58 58 58 59 61 62
38 39 39 39 40 41 42 43 44 44 44 44 44 45 45 46 47 47 48 49 49 50 52 52 53 54 54 54 55 56 56 56 56 56 56 57 58 59 59 58 59 60 60

GEFSMA_500_meanwind_204.txt.gz
Wind_Speed
33 33 34 33 33 32 31 31 31 30 30 29 29 28 27 27 26 26 25 25 24 24 23 23 23 23 23 22 22 22 22 22 22 22 22 22 22 23 23 23 23 24 24
34 35 35 35 34 34 33 33 32 32 32 32 31 31 30 30 29 29 28 28 27 27 26 26 26 26 25 25 25 25 24 24 24 24 24 24 24 24 25 25 25 26 26
35 35 36 36 36 35 34 34 34 34 34 33 33 33 33 32 32 31 30 30 29 29 29 28 28 28 28 28 28 27 27 27 27 27 27 27 27 27 27 28 28 28 28
36 35 36 37 37 37 36 35 34 35 36 35 35 35 35 35 35 34 33 33 32 31 31 31 31 30 30 30 30 30 30 30 29 29 30 30 30 30 30 30 30 30 30
39 37 36 37 38 39 38 38 37 37 37 37 38 37 37 37 37 37 36 35 34 34 33 33 33 32 32 32 32 33 33 32 32 32 32 32 32 32 32 33 32 33 33
40 40 39 37 38 39 40 40 39 38 38 39 39 39 38 38 39 39 39 38 37 36 36 35 35 35 35 34 34 34 34 34 34 34 34 34 34 34 35 35 35 35 35
39 40 41 40 39 40 41 41 41 40 39 40 40 40 40 40 39 39 40 40 39 38 37 37 37 37 36 36 36 36 37 36 36 36 37 37 37 37 37 37 37 37 37
38 39 40 41 41 42 42 42 41 41 40 39 40 41 41 40 40 40 40 40 40 40 40 40 39 39 38 38 38 38 39 39 39 39 39 39 39 39 39 39 39 39 39
39 39 40 41 42 41 42 42 42 41 42 42 40 41 41 41 40 40 41 41 42 42 42 41 41 41 41 41 41 41 41 42 42 41 41 42 42 41 41 41 41 42 42
39 40 40 41 41 41 41 41 42 42 42 42 43 42 42 42 41 40 42 43 43 43 43 43 43 43 43 43 44 44 43 44 43 43 43 43 43 43 43 43 43 43 43
38 39 40 41 41 41 41 41 42 41 41 42 42 42 42 43 43 43 43 44 44 44 45 45 45 45 44 44 45 45 45 45 45 44 44 44 44 44 44 44 44 45 45
37 38 38 40 40 41 41 41 42 43 41 41 41 42 43 42 43 44 43 43 44 44 44 45 46 46 45 45 45 45 45 45 46 46 45 45 45 45 45 46 46 46 46
36 37 38 39 40 40 40 41 42 44 44 43 43 42 42 42 42 43 44 43 44 45 45 45 45 45 45 45 45 45 46 47 46 46 47 47 47 47 47 47 47 48 48
36 37 38 38 39 40 41 41 42 43 44 45 45 44 42 42 42 42 44 44 45 45 45 45 46 46 46 45 46 47 47 47 47 47 48 47 47 47 47 48 48 50 51
35 37 38 39 39 40 42 42 42 42 42 43 44 44 44 43 42 42 43 43 44 45 45 46 46 46 47 47 48 49 49 49 48 48 49 49 49 49 49 50 51 51 52
38 38 39 40 40 40 42 42 42 42 42 42 43 44 45 45 45 44 44 44 44 46 47 46 47 48 48 49 49 49 49 49 49 48 49 50 49 49 50 51 52 52 52
38 40 41 41 41 40 41 42 41 42 43 43 43 44 45 45 45 44 44 44 44 46 48 48 49 50 50 49 49 49 49 49 49 50 50 50 49 50 51 52 53 53 53
37 38 40 41 41 41 42 42 42 43 43 43 43 43 43 44 45 45 45 45 45 46 48 48 49 49 49 50 50 50 50 50 51 51 52 51 51 52 53 53 54 54 55
37 37 38 39 40 41 41 42 42 42 42 43 43 44 44 44 46 47 47 47 47 47 48 49 49 49 50 50 50 51 52 52 52 52 53 53 53 54 54 55 55 55 56
36 37 38 39 39 40 41 41 42 43 43 43 44 44 44 45 46 46 47 48 48 48 49 49 50 51 51 51 52 52 53 53 52 53 54 54 55 55 55 56 56 57 58
35 36 37 38 39 40 41 41 43 44 44 45 45 45 46 46 47 48 48 49 50 49 50 51 51 53 53 53 53 53 54 53 53 55 55 54 55 55 56 56 57 58 59
35 35 35 37 39 40 41 42 43 45 45 46 47 47 48 49 49 49 49 50 51 51 52 53 53 53 53 53 54 54 54 54 54 54 55 54 55 55 56 56 57 59 60
35 36 36 37 38 39 40 41 42 43 44 46 47 48 48 49 50 50 49 50 51 51 51 52 52 52 53 53 54 54 54 55 54 54 55 55 55 56 57 58 58 59 60
36 36 37 37 37 38 40 41 42 43 44 46 47 48 49 49 49 50 50 51 51 52 52 52 52 53 53 54 54 54 54 54 54 55 56 56 56 57 57 58 59 59 60
37 37 38 38 38 38 39 41 43 44 44 45 47 48 49 49 49 50 50 51 52 53 52 52 52 52 52 52 53 54 54 54 54 54 56 57 57 57 57 58 58 59 60
37 38 38 39 39 39 40 41 43 44 45 46 47 47 48 48 49 49 49 50 51 52 52 52 51 51 51 51 52 52 53 54 54 54 55 56 57 58 58 57 57 58 58

GEFSMA_500_meanwind_210.txt.gz
Wind_Speed
31 31 32 32 32 31 32 31 31 31 30 30 30 29 28 28 28 27 27 26 25 25 24 24 23 23 23 22 22 22 22 22 22 22 22 22 22 22 22 22 22 22 22
32 33 33 32 32 32 32 33 33 32 32 32 31 31 30 30 30 29 29 29 28 28 27 27 26 25 25 25 24 24 24 24 24 24 24 24 24 24 24 24 24 24 25
32 33 34 34 33 33 33 34 34 34 34 34 33 33 32 33 32 32 31 31 31 30 30 29 29 28 28 28 27 27 27 27 27 26 26 26 26 26 26 26 26 26 27
34 34 35 36 35 34 34 34 35 36 35 35 35 34 34 34 34 34 34 34 33 33 33 32 32 31 31 30 30 30 30 30 29 29 29 29 29 29 29 28 28 29 29
35 36 36 37 37 37 36 36 36 38 37 38 37 36 36 36 36 36 36 36 36 36 36 36 35 34 33 33 32 32 32 31 31 31 31 31 32 31 31 31 31 31 31
36 36 37 37 38 38 39 39 38 39 39 39 39 38 38 38 38 39 38 38 38 38 38 38 37 36 36 35 35 35 34 34 34 34 34 33 33 33 33 33 33 33 34
36 37 37 37 38 38 38 39 39 40 41 41 40 40 40 40 40 40 39 39 39 39 40 39 39 39 39 38 38 37 37 37 37 36 36 35 35 35 36 36 35 35 35
37 37 37 38 38 38 38 39 40 40 41 41 41 40 40 40 41 41 41 41 41 41 40 40 40 41 41 40 40 40 40 40 40 39 39 38 38 38 38 37 38 38 38
37 37 37 37 37 38 38 38 39 39 41 42 42 42 42 41 41 40 41 41 41 41 41 42 42 42 42 43 42 42 43 42 42 41 40 40 40 40 40 41 41 41 40
36 36 36 36 37 38 39 39 39 39 40 41 42 43 43 43 42 42 41 41 42 41 41 41 42 42 42 43 43 43 43 43 43 42 41 42 42 42 43 42 43 43 43
34 35 36 37 37 38 39 39 39 40 40 40 41 42 43 43 43 43 43 43 42 42 42 42 42 42 43 43 43 44 45 45 44 44 44 43 44 45 45 45 45 44 44
35 35 36 36 37 38 39 39 39 40 41 41 41 41 43 43 43 43 44 45 44 43 43 44 44 44 44 44 44 45 45 45 45 45 45 45 45 46 47 46 47 46 46
35 36 37 37 37 38 39 39 39 40 40 41 41 41 42 42 42 43 44 44 45 45 45 45 45 45 44 45 45 45 46 46 46 46 47 46 47 47 47 47 47 47 47
36 36 37 37 37 37 38 40 40 41 41 42 43 43 42 42 43 43 43 44 45 46 46 46 46 46 46 46 46 46 47 47 46 47 48 48 48 47 47 48 48 48 48
36 36 37 37 37 38 38 39 40 41 42 42 43 44 44 44 44 45 45 45 46 45 45 46 46 46 46 47 46 46 47 48 48 48 49 49 48 48 48 49 48 48 49
35 35 36 37 38 39 39 40 40 41 42 43 43 43 45 45 45 45 45 46 46 45 45 45 46 46 46 47 47 48 48 48 48 49 50 50 49 48 49 49 49 49 49
35 36 36 37 37 38 39 40 41 42 42 43 44 44 45 45 45 45 45 45 45 45 44 44 45 46 47 47 48 48 48 50 51 51 50 50 50 49 49 49 49 49 49
36 36 37 39 39 39 40 41 41 41 42 43 43 43 44 44 44 45 45 45 45 45 45 45 46 47 47 47 47 48 49 49 50 50 49 49 49 49 49 49 49 50 51
36 37 38 39 39 39 40 41 42 42 42 42 42 42 43 43 44 44 44 44 44 45 45 46 47 47 47 47 47 48 49 49 49 49 49 49 50 50 50 51 52 52 52
36 37 38 39 39 39 40 41 42 42 42 42 43 43 43 43 44 44 45 46 45 45 45 46 47 47 48 48 49 49 50 50 50 50 51 52 52 52 53 53 54 55 55
36 36 37 37 38 38 39 40 41 41 42 42 43 43 44 44 44 45 45 46 47 47 47 47 47 48 49 49 49 50 50 51 52 51 52 52 53 53 54 54 55 55 55
35 36 37 37 37 37 38 40 40 40 41 41 41 42 43 43 44 45 46 46 47 48 49 49 48 48 49 49 50 51 52 53 52 53 53 53 54 55 56 56 56 56 57
36 36 37 38 38 38 39 39 40 41 41 41 41 41 43 44 45 46 46 46 47 48 49 49 49 49 49 50 51 51 52 53 53 54 55 55 56 56 56 55 55 56 56
36 36 37 37 38 39 39 39 40 41 42 42 42 42 43 44 45 46 46 46 46 47 47 48 49 49 50 51 52 52 52 54 55 55 55 55 54 54 54 54 54 55 55
38 38 38 38 39 39 40 40 40 40 41 42 42 43 43 44 45 46 46 47 47 47 47 48 49 49 50 52 52 52 52 53 54 53 53 53 52 52 52 53 53 54 55
39 39 39 39 40 40 41 41 41 41 41 42 43 43 44 44 45 46 47 48 48 48 49 49 50 51 52 52 52 51 51 51 51 50 50 51 51 52 52 52 53 54 55

GEFSMA_500_meanwind_216.txt.gz
Wind_Speed
33 33 33 32 32 32 32 32 32 32 32 31 30 30 31 30 30 30 30 30 29 28 27 27 26 26 26 26 25 25 25 24 23 23 23 24 23 23 23 23 23 23 22
35 35 35 34 33 33 33 33 33 33 33 32 32 31 32 32 32 32 32 32 32 31 30 29 29 28 28 27 27 27 27 27 26 26 26 26 26 25 25 25 25 25 24
36 36 36 35 35 34 34 34 34 33 33 33 33 33 33 33 33 33 33 33 33 33 32 32 31 31 30 30 30 30 29 29 29 29 28 28 28 28 27 27 27 27 27
37 36 36 37 36 35 35 35 35 34 35 34 34 34 35 35 34 34 35 35 35 35 34 34 34 33 33 33 33 32 32 32 31 31 30 30 30 30 30 30 29 29 29
37 37 37 37 37 37 37 36 36 36 36 35 36 36 36 37 37 37 36 36 37 37 37 37 36 36 36 36 35 35 34 34 34 33 33 32 32 32 32 32 32 32 32
38 38 38 38 38 38 37 37 37 37 36 36 35 37 37 39 39 38 38 38 38 39 39 39 38 38 38 38 38 38 37 37 36 36 35 35 35 35 35 35 35 34 35
38 38 38 38 38 38 38 38 38 38 38 38 37 38 38 39 40 40 40 40 40 40 40 40 40 39 39 39 39 39 40 40 39 38 38 38 38 37 37 37 37 37 37
36 37 38 38 38 39 39 39 39 40 39 39 39 39 39 39 40 40 40 41 41 41 41 41 41 41 40 40 40 40 41 41 41 41 40 40 40 40 40 39 40 40 40
37 37 38 38 39 39 39 39 39 40 40 40 40 41 41 41 41 42 42 42 42 42 43 43 43 43 42 42 42 42 42 41 41 42 42 42 42 42 42 42 42 42 42
37 37 37 38 39 39 40 39 39 39 39 39 39 40 41 42 42 42 42 43 44 45 45 45 45 45 44 44 44 44 43 43 43 43 44 44 44 43 44 43 44 44 43
38 37 37 38 38 39 39 39 39 39 40 40 40 40 40 41 42 42 43 43 44 45 46 46 46 46 45 45 45 45 46 45 45 45 45 45 45 45 46 46 46 47 46
37 37 37 39 39 39 39 40 40 40 41 40 41 41 41 42 43 43 43 43 44 45 45 46 46 46 47 47 47 47 47 47 47 47 47 48 47 47 47 47 47 48 46
36 37 38 39 40 40 40 41 42 42 42 41 42 42 42 42 42 43 44 45 45 45 45 45 46 47 48 49 49 49 50 49 49 49 48 48 48 48 48 49 48 49 48
36 37 39 39 38 39 39 40 41 42 42 41 42 42 43 43 43 43 44 45 46 46 46 46 47 48 49 49 49 50 50 50 50 49 49 50 50 49 49 49 49 50 50
34 36 38 38 38 39 40 41 41 42 43 43 42 42 42 43 44 44 45 46 47 47 47 47 47 48 49 49 50 50 50 50 50 50 50 50 50 50 49 50 50 51 51
35 36 37 38 38 40 41 41 42 42 43 43 43 43 43 43 43 45 46 47 48 48 49 48 48 48 48 48 48 49 50 50 50 49 50 50 49 49 50 50 51 51 52
35 36 36 36 37 38 39 40 41 41 42 43 43 44 44 44 44 45 46 47 47 48 48 48 49 48 48 48 48 49 49 50 51 51 50 50 50 51 51 51 51 51 51
34 35 35 35 36 36 37 39 41 42 42 43 43 43 44 45 45 45 46 47 47 47 48 48 48 49 49 49 49 50 50 51 51 51 51 51 52 53 53 53 52 52 52
34 34 35 35 35 36 37 38 40 42 42 43 43 44 44 44 45 46 46 46 46 46 47 48 48 48 49 50 50 51 50 51 52 52 52 52 52 53 53 54 53 52 53
34 35 36 36 35 36 37 37 38 40 41 42 43 43 44 45 45 46 46 46 46 46 46 46 47 47 48 48 49 50 50 51 52 52 52 52 53 53 53 54 54 54 54
35 35 35 36 36 36 37 38 38 39 41 41 43 44 44 45 46 46 47 47 47 47 46 46 46 46 47 47 48 49 50 51 52 52 52 53 54 54 54 55 55 56 56
35 35 36 36 37 37 38 39 40 40 41 42 43 44 44 45 46 46 46 46 46 46 45 45 45 45 46 47 48 49 49 50 50 51 52 52 53 54 54 54 55 56 56
36 36 37 37 37 38 38 39 41 41 41 42 43 43 44 45 45 45 45 45 46 46 47 46 46 46 46 46 48 49 49 49 49 50 52 52 53 53 53 53 54 55 56
37 37 38 38 38 38 39 39 40 40 40 41 42 43 43 43 44 44 45 45 46 47 47 47 47 47 47 47 47 48 49 49 50 51 52 52 53 53 53 54 53 54 54
38 38 39 39 39 39 39 39 40 39 40 40 41 42 43 43 43 44 45 45 46 46 47 47 47 47 48 49 49 50 50 50 50 51 52 52 52 53 52 52 53 53 54
38 39 39 40 40 39 40 39 40 40 40 40 41 42 43 44 44 44 45 45 46 46 46 47 48 48 48 49 49 50 51 51 52 51 52 52 52 53 53 52 53 53 54

GEFSMA_500_meanwind_222.txt.gz
Wind_Speed
32 33 33 33 33 32 32 31 31 30 30 30 30 30 30 31 31 30 29 29 29 28 29 28 28 27 27 27 26 26 25 25 25 25 25 25 25 24 24 24 24 24 24
33 33 33 33 33 33 33 32 32 32 31 30 31 31 32 32 32 31 31 31 30 30 30 31 30 30 30 29 29 28 28 28 27 27 27 27 27 27 27 27 26 26 26
33 33 33 34 34 34 34 34 33 33 33 33 32 33 33 33 33 33 33 32 32 32 32 32 32 32 32 32 31 31 31 30 31 30 30 29 29 29 29 29 29 28 28
33 34 34 35 35 35 35 35 34 33 34 35 34 34 35 34 34 35 35 34 34 34 34 34 34 34 34 34 34 34 33 33 33 34 33 32 32 32 31 32 31 31 30
34 34 34 35 36 36 36 36 37 36 36 36 36 36 36 36 35 36 36 36 36 36 36 36 36 36 36 36 36 36 36 35 35 35 35 35 35 34 34 34 33 33 32
34 34 34 35 36 37 37 37 37 37 37 37 37 37 37 37 36 36 36 37 37 37 38 38 38 38 38 38 38 38 38 37 36 37 37 37 37 37 37 36 36 35 34
34 35 35 35 36 37 37 37 37 37 37 37 37 37 37 38 37 37 37 38 39 39 39 40 40 40 40 40 40 40 40 39 38 39 38 38 38 38 38 38 37 37 37
35 35 36 36 37 37 38 38 38 38 38 39 39 38 38 38 37 37 37 38 39 39 39 40 41 41 42 41 41 42 41 41 41 41 40 39 39 39 39 39 39 38 38
35 36 37 38 38 38 38 38 38 38 39 39 39 40 39 39 39 39 39 39 39 39 40 40 41 42 42 43 42 43 43 43 43 43 43 42 41 41 40 40 41 40 40
35 36 36 37 38 38 38 38 39 39 40 40 41 41 42 41 42 40 41 41 41 42 42 42 43 43 43 44 44 45 45 45 45 45 44 45 45 44 43 43 42 43 42
37 36 37 37 37 38 39 39 39 40 40 41 41 41 41 41 42 42 42 42 42 43 43 44 44 44 45 45 45 46 46 46 46 46 46 46 46 46 45 45 45 45 45
37 37 38 38 38 39 39 40 40 40 41 41 40 40 40 41 41 42 42 42 42 42 43 43 44 44 45 46 46 46 47 47 47 47 47 48 47 47 46 46 46 46 47
36 38 38 38 39 39 39 39 40 40 41 41 42 42 42 42 42 42 43 42 42 42 43 43 43 44 45 46 46 47 47 48 49 49 49 49 49 49 49 48 47 47 48
36 37 37 38 38 39 39 40 40 41 41 41 41 42 42 43 43 43 44 44 43 43 43 43 44 44 45 46 47 47 48 49 49 50 50 50 51 51 50 49 48 49 49
37 37 38 38 39 39 40 41 40 40 40 41 42 42 43 43 43 44 44 45 45 45 45 45 46 47 47 47 48 48 49 49 50 50 51 51 51 51 51 50 50 50 50
38 38 38 39 40 40 41 40 39 40 41 41 42 43 43 43 44 45 46 45 46 47 47 46 47 48 49 49 49 49 50 50 50 51 51 51 50 50 50 50 50 50 51
37 38 38 38 39 39 39 39 39 40 41 42 42 43 43 44 45 46 46 46 47 47 47 47 47 48 49 49 49 50 51 51 51 51 51 51 51 50 51 51 51 51 51
38 38 38 38 39 39 39 39 39 40 41 42 42 43 44 44 45 45 46 46 46 47 47 47 47 48 48 49 49 49 50 51 51 51 51 52 52 52 52 52 51 52 52
38 38 38 39 38 38 38 39 39 38 39 40 41 42 42 43 44 44 44 45 46 46 46 46 46 47 47 48 48 48 48 49 50 51 51 52 52 53 53 53 52 52 52
39 39 39 38 38 38 38 39 39 39 39 40 40 41 42 42 42 44 44 45 46 46 46 46 46 46 47 47 48 48 49 50 50 50 50 51 52 52 52 53 52 52 52
39 39 38 38 38 38 39 39 40 39 39 40 40 41 42 43 43 44 45 46 46 46 46 46 46 47 47 48 48 49 49 49 49 49 50 50 50 51 52 52 52 52 52
39 39 38 38 39 39 39 40 40 40 40 40 40 41 42 43 44 45 45 45 46 46 47 47 47 48 48 48 49 49 49 48 48 48 49 49 49 50 51 52 52 53 53
39 39 39 39 38 38 39 39 40 41 41 41 41 42 43 44 45 45 45 46 47 47 46 47 47 47 47 47 48 49 49 48 48 47 47 47 48 49 49 50 51 52 53
38 39 39 39 39 39 39 40 40 40 40 41 41 41 42 42 42 43 43 44 45 45 46 46 46 46 47 47 48 48 48 47 47 46 47 47 48 49 49 50 52 52 53
38 38 39 39 39 39 39 40 40 39 39 40 39 39 39 40 41 42 42 43 44 45 45 45 45 45 46 46 46 46 46 46 46 47 48 48 48 49 50 51 51 52 52
39 39 39 39 39 39 39 39 39 39 39 39 39 39 39 39 40 41 41 42 43 44 45 44 44 45 45 46 46 46 47 47 48 48 48 49 49 49 49 49 50 51 51

GEFSMA_500_meanwind_228.txt.gz
Wind_Speed
32 32 31 31 31 31 32 32 32 31 31 31 32 31 31 31 31 31 30 30 30 30 29 29 28 28 28 27 27 26 26 26 27 27 26 26 26 26 25 25 25 24 24
33 33 33 33 33 33 33 33 33 33 32 33 33 32 32 33 32 31 31 31 31 31 31 31 30 30 30 30 29 29 29 28 28 29 29 28 28 28 28 28 27 27 27
34 34 34 34 34 34 35 34 34 34 34 34 33 33 33 34 33 33 32 32 32 33 33 32 32 32 32 32 32 32 31 31 31 31 31 31 31 30 29 30 30 30 30
35 35 35 35 35 35 36 36 35 36 36 35 34 33 34 34 35 34 34 34 35 35 34 34 33 33 34 34 34 34 33 33 33 33 33 33 33 33 33 32 32 32 32
36 36 36 36 36 36 36 36 36 36 37 37 36 35 35 35 35 35 36 36 37 36 35 36 36 35 35 36 36 35 35 35 35 35 36 36 36 36 36 35 35 35 35
37 36 37 36 37 37 36 36 36 37 37 37 37 37 37 36 37 37 37 38 38 38 38 37 37 38 37 38 38 38 38 38 38 38 38 38 38 38 38 38 37 37 37
37 36 36 36 36 37 37 36 37 36 37 37 38 38 38 37 37 37 38 38 39 39 39 39 39 39 39 39 39 40 40 40 40 40 40 40 39 39 39 38 38 38 37
37 36 36 37 37 38 38 37 37 37 38 38 39 38 39 38 38 38 39 39 40 40 40 40 39 41 41 40 40 41 41 41 41 41 41 41 41 40 40 40 39 39 39
37 37 37 36 37 37 37 37 37 38 38 39 40 40 40 39 40 40 40 41 41 42 42 42 42 41 42 42 41 41 42 42 42 42 42 42 42 43 43 43 43 42 42
37 38 38 37 37 36 37 36 37 38 38 39 40 40 40 41 41 41 41 42 42 43 44 44 44 43 43 44 43 43 44 44 44 44 44 44 44 45 45 45 45 44 44
37 37 38 38 38 38 38 38 38 38 38 39 39 40 40 41 42 42 42 42 43 43 44 44 45 44 44 45 45 44 45 45 45 46 46 46 46 46 45 45 45 45 45
38 37 38 37 37 37 38 38 39 38 39 40 40 41 41 42 42 42 43 43 43 43 43 44 44 45 45 45 46 46 47 46 46 47 47 47 46 46 46 46 46 47 47
39 38 38 37 37 37 37 38 38 39 40 40 41 42 42 43 43 43 43 43 43 43 44 45 45 46 46 46 46 46 47 47 48 48 48 48 47 47 47 47 47 48 48
40 39 39 38 38 38 38 39 38 39 40 41 41 42 43 44 44 44 44 45 45 45 45 45 45 46 47 47 47 48 48 48 49 49 49 49 49 50 49 49 49 49 50
41 40 39 39 39 39 39 39 40 39 40 41 42 42 43 43 44 44 45 46 47 47 46 46 46 46 46 46 47 48 48 48 49 50 51 51 51 51 51 50 50 50 50
42 41 40 40 40 40 39 38 39 39 41 41 41 41 41 42 43 44 45 45 46 46 47 47 47 46 46 46 47 49 49 49 50 50 51 51 52 52 51 51 51 50 50
42 41 41 41 40 40 39 39 39 40 40 40 41 41 41 42 43 44 45 46 46 47 47 46 46 47 47 48 48 49 50 50 51 51 51 52 51 51 51 51 51 51 51
42 41 41 41 41 40 39 39 40 40 40 40 40 40 41 42 43 44 45 46 47 47 47 47 46 47 48 48 48 49 49 50 51 51 51 51 51 51 51 51 51 51 51
42 41 40 40 40 40 40 40 40 39 39 40 40 41 41 42 43 44 45 45 46 47 47 47 46 47 48 48 48 49 49 50 50 50 50 50 50 50 50 51 51 52 52
42 41 40 40 40 40 40 40 40 40 39 40 40 40 41 42 43 43 45 45 45 46 47 47 48 48 48 48 48 48 49 49 50 49 49 49 49 49 49 50 51 52 52
41 41 40 40 40 40 40 40 40 40 40 40 40 41 41 42 42 43 44 45 45 46 46 46 47 48 48 48 47 47 48 48 48 48 49 49 49 49 49 49 50 51 51
41 40 40 40 39 39 40 40 41 41 41 40 40 41 41 42 42 43 43 44 45 45 45 46 46 46 46 46 47 48 48 48 48 48 49 49 49 49 49 49 49 49 50
40 40 40 40 40 40 40 40 40 41 42 42 42 42 42 42 42 42 43 44 43 43 44 45 45 46 46 47 47 47 48 49 49 49 49 48 49 49 49 49 49 50 50
39 39 40 40 40 40 40 40 41 42 42 42 43 43 42 42 42 42 42 42 42 42 43 43 44 45 45 46 46 46 47 48 48 47 48 47 47 48 48 48 48 49 51
38 39 39 39 39 40 40 41 41 42 42 42 42 42 42 42 41 41 41 41 41 42 43 44 43 43 44 45 45 45 45 45 45 46 47 48 47 48 49 49 49 49 50
38 38 38 39 39 40 40 40 41 42 41 41 42 41 41 41 41 41 41 41 42 42 42 42 42 43 44 44 44 44 44 44 44 45 46 47 48 48 48 48 48 49 49

GEFSMA_500_meanwind_234.txt.gz
Wind_Speed
30 30 30 30 30 30 30 29 29 29 29 29 29 29 29 29 28 28 28 28 28 28 27 28 28 28 27 27 27 26 26 26 25 25 25 25 25 25 25 25 25 25 25
31 31 31 31 31 31 31 31 31 30 30 30 30 31 30 30 30 29 29 29 29 29 29 29 29 29 29 29 29 28 28 27 27 27 27 27 27 27 27 28 28 28 28
32 32 32 32 32 33 33 32 32 32 32 31 31 31 31 31 31 30 30 30 31 30 30 30 30 31 31 30 30 30 30 30 29 29 29 29 29 29 29 29 29 30 29
33 34 34 34 34 33 33 33 33 33 33 33 33 33 33 33 32 31 31 31 32 32 32 32 32 32 33 32 32 32 32 32 32 32 32 31 31 31 31 31 31 31 31
35 35 35 35 35 35 34 34 34 34 33 33 34 34 34 34 34 33 33 33 33 33 33 34 34 34 34 35 34 34 34 34 34 34 34 33 33 33 33 33 33 33 33
37 37 36 36 36 36 36 36 35 35 35 35 35 35 35 35 36 36 35 34 35 35 35 36 35 36 36 36 36 36 37 36 36 35 36 36 36 36 35 35 35 35 35
38 38 37 37 37 37 37 37 36 36 36 37 37 37 36 36 36 37 37 37 36 36 36 36 37 36 36 36 37 37 37 38 38 37 37 38 38 38 37 37 37 37 37
38 38 38 38 38 38 38 37 37 37 37 37 38 38 37 37 38 38 39 39 39 39 39 38 38 38 38 37 37 38 38 38 39 39 40 40 40 39 39 39 39 39 39
39 39 39 39 39 39 38 38 38 37 38 39 38 38 38 38 38 38 39 39 39 40 41 41 40 40 39 40 40 39 39 39 39 40 41 41 42 42 42 41 41 41 40
41 40 40 40 40 40 40 39 39 39 39 39 39 39 39 39 39 39 39 40 40 40 40 40 41 41 42 42 42 42 41 41 41 41 42 43 42 42 43 42 42 42 43
41 40 41 41 41 41 41 41 40 40 39 39 40 40 39 39 40 40 40 40 42 41 41 40 40 41 42 42 43 44 43 43 43 43 44 43 43 43 43 44 44 44 44
41 41 42 42 42 42 42 41 41 40 40 40 40 40 40 40 40 40 40 41 41 41 41 41 42 42 43 44 45 45 44 44 44 44 45 45 45 45 46 46 46 46 46
42 43 43 43 43 43 42 42 41 42 42 40 40 40 39 39 39 40 40 40 41 42 42 43 43 43 43 44 44 45 45 45 45 45 46 46 47 47 47 47 47 47 47
43 43 43 43 43 42 43 43 42 42 42 41 40 39 39 39 39 40 40 41 42 42 43 43 44 44 44 44 45 46 46 45 46 46 47 47 47 47 47 47 48 48 48
44 44 44 43 43 42 42 42 42 42 42 41 41 40 40 40 40 40 40 41 42 42 42 42 44 44 44 45 46 46 46 47 47 46 47 46 46 47 48 48 49 49 50
44 44 44 43 43 44 43 43 42 42 42 41 41 41 41 41 41 41 42 42 43 43 43 43 44 44 45 46 46 46 47 48 47 47 47 46 47 48 48 49 50 50 50
44 44 44 43 43 43 43 42 42 42 41 41 41 40 40 41 41 42 42 43 43 44 45 45 46 46 46 47 47 46 46 47 47 47 47 47 48 49 50 50 50 50 50
43 43 43 43 43 43 43 42 41 41 41 41 41 41 41 41 41 41 42 42 43 43 44 45 45 46 47 47 47 47 48 47 48 47 47 48 49 50 50 50 50 50 50
42 42 43 43 43 43 43 42 42 41 41 41 41 41 42 41 40 40 40 41 42 42 43 44 44 44 45 46 46 46 47 47 48 48 47 48 49 49 49 50 50 51 51
42 42 42 42 42 42 42 42 42 42 41 41 40 40 40 40 41 41 41 41 41 42 42 43 44 45 45 46 46 47 47 47 47 47 47 47 48 48 48 49 49 49 49
42 42 42 42 42 42 42 42 42 42 41 41 41 40 40 40 41 42 42 42 42 42 42 43 44 45 46 46 47 47 47 47 47 48 48 48 48 48 48 48 48 48 48
42 41 41 42 42 42 42 42 42 42 41 41 41 41 40 40 41 41 42 42 42 42 43 43 44 45 45 46 46 46 47 47 47 47 48 48 48 48 48 48 47 47 47
40 41 41 41 42 42 43 42 42 42 42 41 41 41 41 40 40 40 41 41 41 42 43 44 43 43 43 44 45 46 46 47 47 47 47 46 47 47 47 46 46 47 47
39 40 40 40 40 41 41 41 41 40 40 40 40 40 40 40 40 41 41 41 41 41 42 42 43 43 42 42 43 43 44 44 45 45 46 45 45 45 45 46 46 46 46
37 38 38 38 38 38 39 39 40 39 40 40 40 40 41 41 41 41 41 41 41 41 41 41 41 41 42 43 43 44 44 44 44 44 44 44 44 45 45 45 46 46 46
37 37 38 37 37 37 38 38 39 40 40 40 40 40 40 40 40 40 41 41 41 41 41 41 41 41 41 42 42 43 43 43 44 43 43 43 44 44 44 44 45 46 46

GEFSMA_500_meanwind_240.txt.gz
Wind_Speed
30 30 31 31 31 30 30 30 30 30 29 29 28 28 28 28 28 28 28 28 28 28 28 28 28 28 27 27 27 26 26 26 26 26 26 26 26 26 27 26 26 26 26
32 32 31 32 32 32 31 31 31 31 31 31 30 30 30 29 29 30 30 29 29 29 29 29 29 29 29 28 28 28 28 28 27 27 27 27 27 27 27 27 28 28 28
34 33 33 33 33 33 33 33 32 32 32 32 32 31 31 31 31 30 31 31 30 30 30 30 30 30 30 30 30 29 29 29 29 29 29 29 29 29 29 29 29 29 30
36 35 34 34 34 34 34 34 34 34 33 33 33 33 32 32 32 32 32 31 31 32 32 32 32 31 32 32 32 31 31 30 30 31 31 31 31 31 31 32 32 32 32
37 36 36 35 35 35 35 35 35 35 35 34 34 34 34 34 33 33 33 32 33 32 33 33 33 33 33 33 33 33 33 32 33 33 33 33 33 33 33 33 34 34 34
39 38 37 36 36 36 36 36 36 36 36 36 35 35 35 36 36 35 34 34 33 33 34 34 34 34 34 34 35 35 34 34 34 34 34 35 34 34 35 35 36 36 36
41 40 40 39 38 38 37 37 37 38 37 37 37 37 36 36 36 36 36 36 35 35 34 35 35 36 36 36 36 36 36 36 36 36 36 37 37 37 37 38 38 38 38
42 41 40 40 39 40 39 39 39 39 39 38 37 37 37 37 37 37 37 37 37 37 36 36 36 36 37 37 37 38 38 38 38 38 39 39 39 40 39 40 40 40 40
44 44 43 41 41 41 41 41 41 41 40 40 39 39 39 38 37 38 38 39 39 39 39 37 37 38 39 39 39 39 39 39 39 39 40 41 41 41 41 41 41 41 42
46 45 45 44 43 43 42 42 42 42 42 42 41 41 41 40 40 39 38 39 40 40 39 39 38 39 40 40 41 41 41 40 41 41 42 42 42 42 42 43 43 43 43
47 46 46 45 45 44 43 43 43 43 43 43 43 42 42 42 41 40 39 39 40 40 39 40 40 41 41 41 42 43 43 43 44 45 44 44 44 43 44 44 44 44 44
48 47 47 46 46 46 45 45 44 44 43 43 43 43 43 43 42 42 41 41 40 40 40 40 41 42 42 42 42 43 44 45 45 46 46 46 46 46 46 46 46 45 44
49 48 47 47 47 46 46 46 45 45 45 45 45 44 44 44 43 42 42 42 42 41 42 42 43 43 43 43 44 44 45 45 45 45 46 46 46 47 47 46 46 45 45
49 49 48 47 47 47 46 46 46 46 46 46 45 44 44 44 43 43 42 42 42 42 42 43 43 44 44 44 45 45 46 45 46 46 46 46 47 48 48 48 47 46 47
49 49 48 49 48 47 47 47 47 46 46 47 46 46 45 45 44 44 43 43 43 43 43 43 43 44 45 45 45 45 46 46 47 47 46 47 47 47 48 47 48 48 48
48 49 49 48 48 48 47 48 48 46 46 46 46 46 46 45 45 44 44 44 44 44 43 43 44 44 45 45 45 45 47 47 47 47 47 47 47 48 48 48 48 48 49
48 49 49 49 49 49 48 47 47 46 46 46 46 45 45 45 45 45 44 44 44 44 44 44 44 44 45 45 46 46 46 47 48 48 48 49 49 49 49 50 50 49 50
47 47 48 49 49 49 48 48 47 47 47 46 46 46 45 45 45 45 45 45 45 45 44 44 44 44 45 46 46 46 47 48 48 48 49 49 50 49 49 50 50 51 50
46 46 47 48 48 48 48 48 48 48 47 47 47 47 46 46 45 45 45 44 45 45 44 44 44 45 46 46 47 46 47 47 48 49 49 49 49 48 49 50 51 51 51
46 46 46 46 46 46 46 47 47 47 47 47 47 47 46 46 45 45 45 45 44 44 44 44 44 45 45 46 46 46 46 47 47 48 48 48 48 48 49 50 49 50 50
45 45 45 45 45 45 45 45 46 47 47 46 46 46 46 46 45 45 45 45 44 44 44 44 44 45 45 46 47 46 46 46 46 47 47 48 48 49 49 49 48 48 48
43 43 43 43 44 43 43 43 44 45 45 45 45 45 45 45 45 45 44 44 45 45 44 44 44 45 45 46 46 46 46 46 46 46 47 46 47 47 47 48 48 48 48
41 41 41 41 42 42 41 42 42 44 44 45 45 45 44 44 44 44 44 45 45 45 45 45 45 45 45 45 46 46 45 45 45 45 46 45 46 46 46 46 47 48 49
39 39 39 39 39 39 40 40 41 42 42 43 43 43 44 44 44 44 45 45 45 45 45 45 45 45 45 44 44 44 44 44 44 44 45 45 45 45 45 46 47 48 48
38 38 38 38 39 39 40 40 40 40 41 42 42 42 42 43 44 45 45 45 45 45 45 45 44 44 44 43 43 43 43 43 43 43 44 44 44 45 45 45 46 47 48
36 37 38 38 39 39 39 39 40 40 40 40 41 42 42 43 43 44 44 44 44 44 44 44 44 43 43 43 42 42 42 43 43 43 44 44 44 45 45 45 46 46 47